GFSSGP_sfc_rhum_021.txt.gz
RH
76 64 43 40 31 38 37 29 20 24 29 25 22 19 22 27 29 35 47 53 67 79 89 88 87 84 80 80 78 78 78 76 73 68 64 62 61 59 59 59 58 56 56 57 59 61 62 61 59
50 39 29 36 37 50 38 28 21 24 27 26 19 21 30 32 31 43 42 62 70 83 90 89 86 84 82 81 81 80 78 76 73 70 65 64 63 62 61 61 60 59 59 61 60 60 60 63 66
45 35 26 34 42 42 36 27 28 27 26 23 24 20 24 33 32 42 51 66 82 86 87 86 85 84 82 81 82 80 79 78 75 70 68 66 66 67 66 64 63 62 62 63 63 64 64 64 66
38 37 29 34 38 37 32 28 26 27 25 25 26 25 23 24 29 30 60 68 78 84 84 84 84 85 83 81 82 80 79 78 77 74 72 70 68 72 72 66 67 66 66 67 67 69 69 69 68
40 33 34 36 32 30 28 22 20 21 29 27 25 29 27 27 30 51 64 63 70 84 83 83 85 84 83 81 82 80 80 79 78 77 74 73 75 76 72 69 69 68 68 68 69 71 74 76 75
37 33 40 33 26 22 21 20 20 25 28 26 28 30 30 24 35 55 60 66 62 75 79 81 83 84 83 82 82 81 81 80 80 80 79 78 79 78 74 73 72 71 71 72 74 76 79 81 80
36 35 36 36 31 27 21 22 21 19 18 21 27 30 30 26 30 43 62 67 68 64 72 79 80 81 83 82 83 82 82 82 82 82 82 81 82 82 81 80 76 75 76 78 79 80 79 80 80
37 35 39 32 27 26 20 20 20 18 19 15 22 28 27 22 24 32 57 65 73 67 66 77 80 79 79 82 84 83 84 83 83 84 84 84 84 85 85 86 85 78 81 83 83 80 78 78 78
29 40 39 30 27 26 19 24 18 17 18 18 18 20 19 18 21 29 43 58 70 65 71 76 77 76 75 78 80 84 83 84 85 84 84 86 92 92 87 88 85 81 84 84 83 81 79 76 75
61 49 33 23 19 23 19 23 22 19 22 21 20 19 18 18 20 24 26 36 60 62 68 76 75 71 74 66 76 87 87 85 90 88 91 95 98 98 92 88 82 81 84 83 82 81 77 76 89
61 58 40 30 20 23 23 20 18 20 22 19 21 20 17 20 21 23 22 25 31 50 63 71 74 68 73 65 74 86 91 91 95 95 96 98 98 97 96 99 97 98 90 97 90 92 94 88 93
61 49 44 42 38 39 39 27 26 22 20 17 18 18 21 19 20 21 21 24 23 40 54 64 74 75 70 63 69 73 84 88 93 94 97 99 99 99 99 99 97 99 99 98 97 98 95 93 92
34 38 39 37 35 33 33 35 32 27 22 20 19 19 20 22 22 23 24 24 24 27 37 63 73 76 73 65 64 72 80 78 83 92 96 97 98 98 98 97 98 98 99 98 98 96 94 94 93
27 25 23 24 25 31 30 28 25 23 20 20 19 21 20 21 21 22 24 27 28 26 29 50 74 74 74 73 61 68 73 71 81 91 92 94 95 98 98 97 96 98 98 98 98 98 97 98 97
24 26 22 21 24 22 19 23 23 21 20 20 19 18 18 23 22 23 23 25 23 22 24 50 70 76 78 79 69 68 68 72 82 89 94 94 96 96 92 91 92 96 98 97 98 96 97 98 96
36 36 36 24 20 21 19 32 22 22 22 22 21 21 20 20 20 18 22 25 24 25 29 41 54 76 79 78 70 70 74 76 78 85 93 92 92 90 91 86 92 96 98 98 98 98 98 96 98
40 46 42 34 21 20 20 28 22 20 18 20 20 20 20 20 23 25 23 20 22 26 27 35 63 76 80 78 72 72 79 80 82 86 88 90 89 88 85 97 96 96 98 98 98 98 97 98 99
44 44 40 39 28 23 23 24 20 22 21 21 19 18 18 18 18 16 20 23 28 34 41 45 70 77 81 83 90 94 98 90 92 89 93 88 88 86 96 97 96 97 99 99 99 98 99 99 99
30 37 43 34 26 28 26 25 23 22 21 19 18 18 19 26 21 20 21 25 34 41 45 50 77 90 89 93 91 98 93 96 92 91 93 92 89 92 91 95 96 98 98 98 97 98 99 99 99
30 34 36 34 28 29 29 30 25 23 22 22 22 22 22 22 20 20 24 32 37 37 44 53 66 92 81 77 78 90 82 96 93 96 96 92 88 89 90 95 97 97 98 97 97 99 99 100 99
31 38 37 36 30 24 28 28 24 18 21 18 18 24 25 24 23 25 27 30 32 37 41 52 72 89 88 93 94 93 88 88 98 98 98 96 91 90 91 94 97 98 98 98 97 98 99 98 98
32 25 29 36 39 43 30 34 20 16 16 19 17 23 25 22 26 28 24 28 34 31 44 55 83 96 96 90 89 79 83 82 96 82 97 98 92 90 91 94 96 97 98 98 97 97 98 98 98
29 27 30 28 31 47 39 48 28 25 22 18 16 16 20 25 23 26 24 26 31 46 85 96 98 98 96 93 85 81 84 91 95 90 96 95 97 93 90 90 94 96 98 96 96 97 98 99 98
18 28 31 30 44 56 35 40 28 24 23 22 23 24 23 24 24 32 78 90 97 99 100 99 98 98 94 84 84 78 84 92 93 93 95 96 98 93 86 91 95 96 96 96 96 96 96 98 98
27 32 50 59 65 51 32 36 27 29 27 24 24 22 21 23 47 85 96 98 99 99 99 98 96 97 94 90 88 83 87 85 89 89 89 96 97 96 96 94 95 95 94 94 96 96 96 97 98
32 31 50 54 62 46 27 40 33 25 21 16 16 16 23 46 89 95 98 99 99 98 98 96 94 93 90 90 93 92 87 87 88 91 95 98 97 96 94 93 93 93 92 94 96 98 97 96 98
40 32 23 30 35 44 43 36 27 21 16 17 18 24 44 86 96 99 99 98 98 97 97 93 88 89 89 90 89 92 88 89 91 94 94 97 96 92 92 92 92 91 93 94 95 98 96 97 96
34 33 32 41 48 54 45 42 34 30 27 26 25 23 60 94 99 99 99 98 97 96 94 87 83 86 89 88 85 88 92 93 95 96 95 94 95 90 92 91 90 92 92 92 95 96 95 96 97
37 49 44 31 38 54 55 49 34 26 24 23 22 27 86 95 99 99 98 97 96 94 90 90 87 87 89 86 90 90 94 94 95 95 94 92 91 89 89 87 85 88 88 91 94 95 94 95 95
37 42 50 50 42 47 50 39 21 30 25 35 38 58 90 96 97 97 97 94 90 90 89 90 88 84 88 90 93 94 94 94 94 94 91 91 89 90 86 83 81 77 86 91 94 92 94 95 95

GFSSGP_sfc_rhum_024.txt.gz
RH
82 72 48 43 33 37 36 28 23 21 30 27 24 27 31 32 31 37 51 61 72 77 92 89 87 84 81 80 80 80 80 77 74 72 70 68 67 62 60 61 58 56 54 55 57 59 59 59 58
58 44 34 37 31 43 26 28 25 21 30 28 25 29 31 29 30 39 44 64 71 82 90 90 87 84 83 81 80 81 80 77 75 73 71 68 69 66 60 59 58 56 55 57 58 59 61 62 64
43 36 29 38 40 38 28 29 28 26 23 28 28 26 32 33 37 40 51 70 82 88 88 88 87 85 84 82 81 81 79 77 75 73 72 71 70 70 68 62 60 59 59 59 59 60 61 62 66
42 38 32 38 43 36 32 30 33 23 20 26 25 29 26 28 35 36 62 78 83 84 86 85 86 86 84 83 82 81 80 78 76 75 74 73 71 73 72 66 65 63 62 63 63 65 67 66 66
39 33 35 42 33 29 32 30 26 24 26 26 28 32 30 26 33 55 67 73 82 90 86 84 86 86 84 83 82 82 81 80 78 76 75 73 75 74 71 68 67 67 67 68 69 70 72 74 74
42 35 44 31 28 24 24 22 25 25 28 19 27 30 29 28 36 60 68 75 72 86 88 86 84 85 85 83 82 82 82 81 80 78 77 76 77 76 72 71 70 69 70 70 70 72 76 81 80
38 37 39 35 30 28 24 24 24 22 23 21 31 32 29 27 32 61 67 70 71 77 86 86 84 83 85 84 82 82 83 82 81 80 80 79 79 79 78 78 75 72 75 75 77 79 80 80 80
38 35 42 34 28 24 22 24 20 21 22 18 21 26 27 25 32 61 67 71 76 77 78 84 91 84 84 84 84 83 83 83 83 83 83 82 82 82 82 83 82 77 79 80 81 81 80 79 79
33 43 42 32 28 22 22 28 21 18 21 22 21 19 20 24 28 47 65 69 74 70 76 83 88 89 87 85 83 84 82 84 84 85 85 85 89 90 84 86 85 81 83 84 84 84 82 78 75
43 45 35 23 21 21 20 24 21 20 23 25 24 20 20 24 25 27 35 48 67 70 70 74 82 83 84 73 85 84 86 84 88 88 89 92 96 96 91 87 83 82 84 84 84 84 80 75 83
66 53 28 24 19 20 22 24 25 25 27 22 23 22 21 23 23 25 26 32 43 50 66 68 73 77 80 73 79 85 90 90 93 94 93 96 95 94 91 96 91 95 86 92 88 88 87 87 85
70 56 40 36 34 40 40 39 40 32 29 22 20 20 24 22 25 26 26 26 26 35 52 63 70 72 77 70 71 73 84 87 88 90 94 98 97 98 96 95 96 97 97 97 95 93 94 91 86
49 51 48 43 42 41 36 40 41 37 30 25 22 22 25 26 26 26 26 27 28 28 30 56 75 76 73 76 68 74 79 79 79 87 92 91 96 97 96 96 95 94 96 96 96 93 91 89 86
28 27 30 35 40 33 34 34 33 30 27 26 24 25 23 26 27 26 26 26 31 31 32 38 76 77 76 75 70 70 69 75 78 83 88 89 97 97 98 96 94 94 97 97 97 96 92 88 88
28 30 28 26 29 29 23 28 29 23 22 22 22 22 22 23 25 27 25 29 27 26 31 42 58 78 83 80 72 66 67 73 76 77 89 90 95 96 95 97 97 97 97 95 96 94 95 93 92
37 36 34 24 25 22 24 33 22 24 24 24 22 22 24 26 25 26 28 31 32 34 35 40 46 79 82 80 77 67 68 75 74 76 90 92 93 93 96 97 97 98 97 98 98 97 97 96 96
44 36 48 35 25 25 23 29 31 23 22 25 25 24 23 20 25 30 28 29 31 32 36 38 60 73 83 82 82 78 79 78 77 84 93 91 92 90 94 96 95 94 97 97 98 97 95 96 96
50 54 45 44 30 25 28 27 24 21 21 23 25 24 25 24 26 25 27 27 27 36 44 48 52 68 86 91 93 91 94 87 87 90 94 93 93 89 94 96 96 97 97 97 98 96 97 97 98
32 40 43 39 32 33 30 27 25 26 26 23 21 21 20 20 20 28 29 30 33 44 48 51 59 80 90 94 94 95 89 97 97 91 93 93 92 91 93 97 96 97 97 97 96 97 97 99 98
31 37 40 34 30 33 38 36 30 27 25 24 24 25 29 32 30 27 26 32 37 40 49 54 63 91 91 86 92 93 94 98 95 95 95 93 90 93 92 94 96 96 98 97 98 98 99 96 97
36 40 40 38 32 28 32 34 30 24 24 20 20 21 22 25 27 25 26 30 33 42 46 50 62 88 93 94 95 98 97 98 99 99 99 97 91 91 91 92 95 97 98 99 98 98 98 99 98
36 30 32 38 45 50 35 45 29 24 22 19 18 20 20 29 25 25 26 32 31 34 42 49 63 89 94 95 93 93 98 98 97 96 98 98 93 93 92 92 93 96 99 98 97 97 97 97 98
32 27 29 30 33 40 36 52 27 26 28 25 19 16 16 22 27 25 23 25 34 48 52 66 80 96 97 94 91 90 95 96 96 95 98 98 98 93 89 91 94 96 98 95 96 97 98 98 98
21 32 38 42 46 59 33 40 30 24 22 19 22 23 20 20 25 29 34 83 92 92 95 97 99 99 96 91 90 90 93 95 95 95 97 99 97 95 93 91 92 95 96 95 96 96 96 98 98
27 37 61 69 68 47 35 39 23 30 27 26 25 25 27 30 29 33 80 95 88 89 89 94 98 99 96 91 88 89 91 91 92 93 98 96 96 96 96 93 94 95 93 93 95 96 95 97 98
35 36 57 58 55 48 31 47 38 26 23 24 24 24 24 26 32 81 97 92 91 91 98 98 97 97 94 91 92 91 90 86 92 88 91 96 94 92 94 91 93 90 91 91 94 97 97 95 97
40 40 32 34 39 44 46 41 32 21 19 19 22 24 26 28 73 95 93 97 99 99 98 96 94 95 93 92 90 92 91 90 92 96 94 93 94 90 92 91 91 90 90 92 95 98 96 96 96
36 32 37 43 43 54 48 44 40 30 31 27 29 31 29 71 95 92 99 100 99 98 95 93 92 92 92 91 87 88 92 92 92 91 94 94 94 90 91 91 90 90 90 91 95 96 93 94 94
39 49 46 38 48 55 57 49 39 30 33 36 43 60 45 95 89 93 98 99 98 96 94 93 90 88 90 88 88 88 91 91 92 92 93 92 90 90 89 86 85 85 87 90 94 94 92 91 93
49 46 47 56 46 42 53 42 24 33 35 34 33 89 96 90 88 93 99 98 96 96 90 91 89 86 88 86 87 90 92 92 95 94 91 89 89 87 85 84 79 77 82 88 90 90 90 91 92

GFSSGP_sfc_rhum_030.txt.gz
RH
41 28 12 16 16 10 10 10 9 14 15 14 14 15 15 13 14 18 18 20 20 26 39 62 86 86 86 85 83 82 83 84 84 84 84 82 80 76 73 70 66 61 56 54 53 52 52 53 55
25 20 14 12 13 10 9 9 11 13 14 13 13 14 16 16 13 16 17 26 24 30 42 40 86 84 84 85 85 85 84 83 82 83 82 80 80 77 70 65 61 57 56 55 55 56 57 58 59
24 13 11 10 10 9 10 8 12 13 12 13 15 13 15 17 15 13 16 28 26 36 41 39 86 85 84 84 85 86 86 84 83 83 82 80 78 75 72 68 65 58 56 57 59 60 60 62 63
17 14 11 13 11 8 8 11 14 13 13 13 14 15 13 15 15 10 21 24 29 33 34 53 85 85 84 83 83 84 84 83 82 81 80 77 75 74 73 71 68 61 57 59 60 61 63 64 66
18 12 12 11 10 8 8 9 14 13 13 15 14 15 15 17 19 18 22 23 24 28 32 38 86 86 84 82 82 83 82 80 79 77 76 75 75 75 74 72 69 65 61 62 63 65 68 67 68
16 11 12 11 9 8 8 8 10 10 12 13 13 15 15 16 20 20 18 19 18 24 32 32 79 86 85 83 83 83 81 80 78 77 76 76 76 76 75 74 71 70 70 68 68 70 73 74 74
20 13 11 9 9 8 7 6 8 10 13 13 12 15 15 14 16 19 19 18 21 23 31 34 42 66 87 86 85 84 83 81 80 79 78 78 78 78 77 77 76 75 76 76 76 74 74 75 78
17 16 15 10 10 10 7 9 6 8 13 11 12 16 17 15 18 20 19 19 20 23 25 30 37 38 44 46 86 86 84 83 82 81 81 80 79 80 79 81 79 78 79 79 78 76 77 80 78
18 21 19 14 11 9 8 8 7 9 12 12 12 12 13 18 19 18 19 18 17 20 28 31 32 37 37 27 43 84 85 85 84 79 82 79 45 49 49 60 73 81 80 80 79 79 81 80 77
22 22 18 13 12 11 8 8 8 11 13 14 13 14 12 14 15 15 15 15 16 19 22 26 42 39 38 29 35 50 44 49 53 49 50 50 46 44 39 51 78 82 82 80 80 82 83 77 37
23 23 15 14 13 12 11 9 7 11 13 13 13 14 14 15 15 14 11 10 10 12 13 21 38 51 44 37 33 36 42 44 46 49 53 54 43 44 42 39 49 54 72 51 63 64 53 47 40
24 20 19 15 14 15 13 11 11 9 10 10 11 13 14 15 15 15 14 12 12 12 13 18 32 52 58 37 37 36 36 41 41 42 57 52 48 53 48 38 42 57 57 53 50 48 50 51 49
19 19 18 17 17 16 15 14 13 12 11 10 12 15 17 15 15 16 16 16 15 16 18 19 27 46 55 63 39 42 40 37 41 38 48 49 43 53 48 46 40 44 38 50 57 51 50 53 52
14 14 16 16 19 20 23 20 17 16 14 15 17 18 16 14 15 16 16 18 19 18 19 20 22 37 52 55 58 49 52 42 40 39 40 57 46 52 44 48 44 40 42 46 48 53 48 56 46
15 18 16 16 17 21 22 26 23 16 15 16 18 17 16 16 14 15 16 19 20 18 21 28 30 33 51 56 53 49 39 44 38 40 52 50 62 57 58 44 44 39 46 58 52 52 63 50 45
18 17 20 14 15 16 24 32 20 16 16 17 16 15 14 14 13 13 14 17 22 25 25 26 20 22 42 53 47 42 37 37 38 38 42 54 61 60 61 42 44 40 45 47 42 57 49 50 48
18 18 17 15 12 15 18 25 18 14 14 15 15 14 13 13 14 17 17 20 22 24 28 30 31 28 42 49 43 48 55 46 38 38 40 50 58 60 55 47 43 58 42 43 48 48 51 53 60
16 16 16 15 12 13 16 19 16 13 14 15 14 14 14 15 16 15 17 17 20 25 34 39 35 43 46 42 48 40 39 43 42 40 42 51 56 61 66 52 53 53 43 44 45 58 54 77 72
16 16 15 15 12 14 17 18 16 14 14 15 16 16 16 16 14 15 17 19 21 27 37 41 44 55 44 34 37 39 38 43 45 43 52 54 60 66 68 52 55 57 50 57 64 64 69 73 74
18 22 22 18 16 17 19 19 17 15 15 15 16 16 16 16 15 15 17 20 24 32 37 43 45 49 49 38 46 38 40 38 42 45 56 60 69 66 63 63 58 64 49 66 74 71 60 76 80
21 23 24 21 19 20 22 24 21 17 17 17 16 17 17 18 18 18 18 20 21 27 35 38 42 48 50 51 46 54 51 52 50 52 65 71 65 66 68 67 61 64 55 62 66 80 68 84 72
22 16 19 22 24 27 21 27 20 17 17 16 16 16 15 16 15 15 16 18 21 21 23 30 38 45 42 53 53 67 50 49 48 53 66 63 67 74 77 74 65 68 52 61 67 73 58 71 76
20 15 20 22 24 26 23 23 21 17 18 16 16 14 14 14 14 13 13 14 16 18 23 30 39 49 52 54 59 55 58 46 54 54 75 85 82 77 69 66 68 65 49 68 66 66 70 70 52
17 18 19 24 26 32 25 23 20 16 15 13 12 11 12 11 11 13 14 16 18 20 22 34 52 57 55 56 63 66 64 59 54 62 85 86 81 75 66 62 65 66 63 71 66 66 70 65 55
19 24 26 29 34 39 21 22 21 16 12 12 13 13 12 13 14 14 14 15 20 28 36 45 55 57 56 58 60 62 66 69 71 84 77 75 76 66 73 68 70 73 71 64 63 69 64 64 58
24 24 24 27 23 20 19 25 17 14 12 12 14 14 16 18 19 20 18 18 22 37 54 53 55 58 58 59 62 63 68 55 58 62 59 58 59 60 72 68 69 64 64 63 65 55 53 61 60
27 36 25 22 21 16 14 19 15 13 14 14 16 19 23 30 31 27 21 33 43 56 58 54 56 60 60 63 65 68 62 64 62 70 65 54 61 61 65 65 66 63 60 61 66 49 60 61 76
33 40 76 23 33 26 16 18 16 15 15 14 19 20 27 41 29 26 38 64 61 55 56 60 61 62 63 63 62 62 65 65 67 64 63 63 65 62 64 64 63 60 57 58 65 56 64 73 86
60 60 56 33 21 22 18 15 14 20 22 22 19 20 36 47 36 49 68 66 54 55 57 62 60 61 60 58 61 62 61 61 60 61 62 63 65 62 58 55 56 54 56 59 69 69 66 69 72
41 57 64 79 44 21 27 23 20 22 19 22 20 20 35 62 65 75 73 51 50 52 52 56 57 55 55 55 58 61 59 59 62 62 62 60 59 54 50 48 47 47 50 59 60 60 56 66 75

GFSSGP_sfc_rhum_033.txt.gz
RH
43 23 14 9 14 8 9 6 5 7 8 9 10 11 12 12 13 22 12 12 13 21 40 60 88 87 83 83 87 90 91 91 91 90 89 86 84 79 76 74 69 64 60 56 51 49 49 50 51
19 16 10 10 12 10 7 6 7 9 9 10 11 11 14 13 11 15 14 15 16 26 41 38 88 88 85 82 83 87 88 89 89 89 86 83 82 78 74 71 67 62 56 54 52 52 53 54 56
30 14 10 10 12 9 7 5 8 8 11 12 11 10 12 14 12 12 19 17 18 30 39 39 88 88 86 84 84 84 85 86 86 86 84 82 81 80 77 72 66 59 57 56 56 57 58 59 60
16 11 11 12 9 8 6 7 7 10 11 10 10 13 12 12 13 13 17 17 22 27 31 58 86 87 86 86 85 86 85 84 84 83 82 82 81 80 77 72 69 62 58 58 60 60 61 62 64
16 12 12 10 10 7 5 6 10 12 11 12 11 13 14 14 12 13 15 16 20 22 27 49 86 87 86 85 86 86 86 86 85 84 82 80 80 78 76 73 68 64 61 60 62 63 65 64 65
17 11 13 12 9 6 5 6 8 12 10 10 12 12 12 13 15 12 12 13 14 19 25 38 80 87 86 85 85 85 86 86 85 83 82 79 78 77 76 75 71 70 69 67 65 67 69 70 71
21 14 12 9 9 8 6 5 7 9 10 10 10 13 14 14 13 10 10 10 11 15 21 30 52 67 87 86 85 85 85 84 83 81 80 79 78 78 78 76 75 74 74 74 74 73 73 74 75
18 17 16 10 10 8 6 5 5 8 10 9 10 14 16 13 12 9 9 10 11 14 17 21 40 43 48 50 86 86 85 84 83 82 82 80 80 79 79 80 78 78 77 78 78 76 75 76 79
15 22 20 14 12 10 6 6 5 6 8 10 11 12 12 12 13 11 11 11 11 13 17 21 27 40 39 31 48 84 84 84 84 80 82 79 47 49 48 59 70 80 81 81 80 78 79 79 80
22 22 19 12 10 10 8 6 6 7 9 11 12 12 12 14 14 12 12 13 13 14 15 19 31 32 35 25 35 57 48 51 53 50 53 55 49 44 37 49 72 80 82 82 82 83 82 79 48
22 23 16 13 11 10 11 9 6 6 10 11 13 12 12 12 13 13 12 12 12 13 13 15 36 42 36 31 27 42 45 47 50 56 55 58 44 44 39 38 46 56 73 54 65 65 57 59 49
20 18 18 16 13 11 12 11 10 7 7 8 10 11 11 13 13 13 12 11 10 11 11 13 18 45 53 33 32 29 32 41 43 46 58 55 50 51 49 38 40 57 46 53 52 48 61 62 51
15 16 14 14 15 15 13 14 12 10 7 6 7 10 11 12 13 13 13 14 15 15 15 15 18 41 55 62 35 37 36 34 40 39 50 51 44 53 45 47 37 46 40 47 48 50 53 53 50
10 10 10 11 14 15 16 16 14 12 10 9 8 9 10 12 14 14 14 15 17 18 18 16 17 44 53 57 63 51 52 38 37 37 41 57 48 52 44 50 43 38 41 38 43 45 45 49 49
11 13 12 11 10 13 15 21 21 15 13 12 11 11 12 14 13 14 16 21 17 17 20 28 29 33 56 65 59 52 36 39 35 34 51 53 62 59 58 46 45 39 45 57 51 54 49 45 49
16 14 15 12 11 11 14 22 17 15 15 15 14 12 12 13 13 13 13 16 20 22 24 29 19 26 53 59 52 44 35 32 30 33 35 52 61 62 60 46 46 44 47 44 45 45 42 49 49
13 18 14 11 9 11 13 18 15 15 16 16 15 14 13 14 14 16 13 15 17 22 28 31 34 27 41 48 41 45 51 37 31 30 33 47 53 59 60 49 46 59 44 43 49 45 49 52 49
10 10 11 13 9 9 12 14 13 12 14 17 16 14 13 13 12 12 13 15 19 28 35 40 35 40 46 38 49 35 30 33 35 34 34 46 52 54 66 53 57 53 46 44 44 57 50 54 48
10 10 12 9 7 10 12 12 11 11 13 14 14 14 15 15 12 12 14 15 18 28 34 41 44 54 43 31 30 29 26 32 36 38 48 48 50 58 69 56 58 56 54 56 62 56 64 64 64
13 14 12 11 10 12 14 14 12 11 12 12 14 14 14 14 14 14 16 20 24 30 36 42 46 52 53 36 45 32 33 28 32 37 50 51 51 58 62 66 58 65 50 65 65 69 61 54 68
15 15 16 14 14 13 16 19 17 12 12 12 12 13 12 14 15 16 16 22 23 27 34 37 45 51 53 51 42 47 47 47 36 41 46 53 54 63 68 69 62 67 59 50 67 70 72 61 73
20 12 14 16 20 23 16 24 20 17 16 15 14 14 14 14 14 15 17 20 24 24 25 32 40 49 50 59 50 61 45 43 38 43 46 57 62 70 69 75 74 75 56 62 65 62 64 78 76
17 12 14 15 17 20 19 21 18 15 16 14 14 14 14 14 14 14 13 14 15 19 23 31 40 48 52 55 59 42 56 39 40 42 72 72 76 75 72 73 75 76 56 66 68 74 80 72 52
13 14 17 17 17 23 23 20 19 16 15 13 12 11 11 11 12 12 12 15 14 15 16 26 40 48 52 55 61 68 66 58 50 54 68 75 77 78 80 69 75 68 65 75 67 78 75 70 62
16 20 23 28 26 30 22 23 21 16 13 11 11 10 10 11 12 12 12 10 14 16 18 21 28 44 51 53 56 58 62 67 69 76 72 83 83 82 83 75 73 64 76 70 68 68 66 65 59
21 22 24 34 28 21 16 26 20 15 12 12 11 11 11 12 13 15 14 14 12 16 26 31 37 47 50 51 55 58 60 51 63 67 68 72 68 70 74 69 72 66 63 58 64 58 56 63 58
28 26 23 32 32 35 33 24 14 14 12 12 13 13 16 18 19 20 19 17 15 20 38 44 45 50 52 54 58 61 60 62 61 72 75 60 67 65 66 70 65 60 56 59 67 52 61 61 68
27 22 46 73 46 41 32 24 17 16 15 13 14 17 17 26 26 22 19 21 32 42 45 48 52 54 55 56 57 62 73 68 70 73 77 77 73 68 65 64 62 59 57 58 64 56 58 62 84
69 56 46 44 38 48 30 30 14 15 14 14 16 18 28 39 26 25 33 42 42 45 48 53 52 54 58 61 73 77 75 72 69 68 68 63 63 58 54 54 55 55 55 56 63 61 55 60 73
20 36 42 87 81 28 30 34 29 19 16 20 18 19 26 49 53 63 51 39 41 43 45 49 51 50 55 64 70 74 67 66 66 60 58 56 56 52 49 48 48 45 46 54 57 58 53 63 73

GFSSGP_sfc_rhum_036.txt.gz
RH
43 21 17 12 15 12 12 7 6 6 5 4 8 9 11 12 23 30 15 18 35 45 64 76 86 84 88 91 93 94 94 93 92 92 91 89 87 84 82 79 75 70 61 58 53 49 50 52 53
19 14 15 13 16 15 10 6 6 5 5 7 8 10 11 17 16 15 16 20 39 49 66 65 87 84 85 90 93 94 93 93 92 92 90 88 86 83 79 76 72 67 59 53 51 49 50 52 55
33 22 15 13 16 17 10 5 5 5 9 9 10 10 11 16 16 17 21 28 41 51 56 63 89 86 84 86 91 92 92 93 92 90 89 87 85 83 80 77 73 64 56 54 53 54 57 57 58
22 19 12 15 16 10 10 8 6 6 11 11 10 12 10 13 15 18 19 30 40 44 43 78 89 88 86 84 86 89 91 91 91 89 88 86 84 84 82 77 73 67 59 57 58 61 61 61 62
22 18 17 12 10 10 9 6 5 8 10 10 10 12 13 13 16 18 21 25 30 35 38 72 89 89 88 86 85 86 87 88 88 88 86 85 84 84 81 77 73 70 66 63 65 67 68 68 66
24 17 19 16 12 8 7 6 5 10 10 10 11 12 12 12 19 20 17 20 21 29 38 64 84 89 89 87 86 86 86 86 86 86 85 84 85 82 79 76 74 72 70 70 70 71 73 73 72
28 24 20 13 10 9 7 6 6 6 10 11 10 13 12 13 15 14 16 15 16 22 39 58 66 79 88 88 89 88 88 88 87 88 87 85 84 81 79 78 76 75 74 73 74 75 77 79 79
21 26 26 18 14 11 6 6 5 5 7 7 9 19 27 20 14 12 12 12 14 19 29 49 61 60 66 70 88 88 89 88 88 88 86 84 82 81 81 82 79 77 77 77 78 78 80 82 82
14 27 29 22 18 12 8 7 5 4 5 8 9 14 16 14 14 12 12 11 13 16 23 40 53 61 57 49 66 88 86 87 87 85 84 84 73 71 65 72 71 79 80 80 81 82 83 83 83
20 26 26 18 15 14 10 8 7 6 6 7 10 15 14 15 17 15 12 13 14 17 20 26 57 54 52 35 55 76 72 75 78 74 77 79 74 67 56 62 72 78 82 83 83 84 84 82 71
20 26 22 18 14 13 12 11 8 8 8 7 9 13 12 16 17 16 13 12 13 15 21 24 54 60 51 44 52 65 61 67 70 72 74 77 67 66 58 56 63 79 80 76 79 81 80 74 70
15 16 18 19 16 16 16 12 11 10 9 6 7 10 13 13 15 16 14 15 27 26 30 34 45 59 61 43 46 59 57 61 61 64 71 70 71 69 66 54 61 71 68 73 69 71 75 73 69
10 11 13 14 16 17 16 16 15 12 10 8 6 8 13 15 16 18 18 21 26 30 30 28 52 61 68 72 60 55 55 58 60 62 66 64 65 66 61 63 57 63 62 68 67 68 72 72 72
11 10 9 10 14 14 15 16 15 14 11 11 11 9 13 15 18 18 21 24 29 31 38 32 37 69 69 70 75 76 73 64 62 59 61 67 64 68 61 63 63 65 61 61 63 66 66 69 69
13 14 12 11 9 10 12 17 18 15 14 13 12 11 11 13 15 15 22 28 29 31 36 40 41 69 77 76 76 71 72 60 65 57 67 68 70 70 67 63 61 56 68 72 68 66 71 70 66
13 14 17 12 11 10 12 16 12 13 16 17 15 14 13 12 10 14 19 26 34 34 37 45 25 49 77 79 76 72 65 65 58 55 58 66 70 68 73 62 64 63 62 63 72 66 70 72 68
13 15 13 13 10 9 11 15 12 11 15 20 20 18 16 15 16 18 19 22 32 40 45 48 46 44 71 78 75 74 73 67 59 57 52 63 69 67 65 64 65 72 65 66 61 74 76 76 76
13 10 9 10 8 9 10 13 12 12 12 16 18 18 19 18 17 18 22 22 27 39 47 51 53 55 60 69 75 65 64 60 56 53 55 64 63 68 72 66 70 77 62 65 72 74 71 71 77
12 12 12 10 7 9 11 12 11 11 12 14 16 19 19 19 18 18 22 21 32 44 54 61 63 66 66 66 64 63 55 56 54 58 64 64 67 67 77 69 75 70 73 69 78 78 77 79 77
15 16 16 13 10 12 12 13 13 11 12 13 17 16 17 18 18 18 19 24 37 45 53 60 66 72 69 60 67 64 60 48 45 55 67 66 69 70 72 77 73 77 70 78 81 78 76 79 82
17 18 19 16 13 12 14 16 16 12 12 12 13 15 16 17 19 20 23 31 36 42 53 57 64 67 68 64 64 69 69 71 65 66 69 69 68 70 75 79 76 79 72 71 80 82 81 78 83
20 14 15 16 17 20 14 24 20 16 16 15 16 15 16 17 17 17 20 25 34 37 38 52 62 65 61 70 64 73 59 61 62 69 66 71 70 72 75 80 77 84 71 78 76 77 80 85 90
19 16 15 15 17 18 17 20 20 18 18 16 17 16 16 17 18 17 17 20 24 26 32 41 50 59 62 66 66 63 72 65 67 66 81 80 81 79 72 80 79 86 74 78 76 83 83 79 94
19 18 18 16 16 25 20 19 18 16 18 16 14 14 15 15 15 16 17 20 21 23 28 40 53 58 64 62 74 77 75 69 66 76 80 78 78 84 83 80 84 87 83 82 80 85 87 91 90
36 22 25 25 24 24 17 19 20 16 14 13 14 13 13 15 16 19 18 17 20 23 26 36 51 64 66 66 69 73 73 82 79 78 77 84 85 88 89 87 88 84 83 82 87 90 88 90 90
46 44 42 37 29 22 15 25 20 15 14 14 14 14 14 16 14 17 20 25 19 27 36 38 42 57 60 61 67 71 73 71 74 79 80 82 85 86 88 86 82 79 79 83 86 93 91 87 83
36 27 26 40 33 37 32 17 18 17 15 16 15 15 16 17 18 18 18 23 21 24 41 45 44 49 58 64 71 75 73 75 80 84 85 79 83 78 86 81 82 81 81 80 85 91 84 84 82
20 19 44 47 59 42 28 23 20 20 17 16 17 16 17 17 18 20 24 27 30 33 47 55 58 63 62 65 68 68 73 75 78 81 84 82 83 77 80 81 81 80 75 77 83 83 79 82 91
28 47 51 54 75 82 59 31 19 47 46 29 16 16 18 21 28 40 26 27 39 45 52 62 59 61 66 68 72 74 76 76 78 82 82 82 82 80 77 74 74 72 74 76 84 80 77 76 88
18 33 57 66 55 37 38 41 27 60 65 62 22 25 22 30 44 48 36 37 38 46 52 58 61 69 77 78 80 82 78 80 82 80 81 78 77 73 68 65 62 60 64 74 75 75 67 76 84